TimeCDT,TemperatureF,Dew PointF,Humidity,Sea Level PressureIn,VisibilityMPH,Wind Direction,Wind SpeedMPH,Gust SpeedMPH,PrecipitationIn,Events,Conditions,WindDirDegrees,DateUTC
12:53 AM,62.1,60.1,93,29.92,7.0,Calm,Calm,-,N/A,,Partly Cloudy,0,2012-10-03 05:53:00
1:53 AM,62.1,60.1,93,29.94,7.0,Calm,Calm,-,N/A,,Scattered Clouds,0,2012-10-03 06:53:00
2:53 AM,62.1,60.1,93,29.94,7.0,Calm,Calm,-,N/A,,Scattered Clouds,0,2012-10-03 07:53:00
3:53 AM,61.0,60.1,97,29.93,7.0,Calm,Calm,-,N/A,,Scattered Clouds,0,2012-10-03 08:53:00
4:53 AM,60.1,59.0,96,29.95,5.0,Calm,Calm,-,N/A,,Clear,0,2012-10-03 09:53:00
5:53 AM,60.1,59.0,96,29.96,4.0,Calm,Calm,-,N/A,,Clear,0,2012-10-03 10:53:00
6:31 AM,60.8,57.2,88,29.98,2.5,Calm,Calm,-,N/A,,Clear,0,2012-10-03 11:31:00
6:41 AM,59.0,57.2,94,29.98,1.5,Calm,Calm,-,N/A,,Clear,0,2012-10-03 11:41:00
6:49 AM,59.0,57.2,94,29.98,2.5,Calm,Calm,-,N/A,,Clear,0,2012-10-03 11:49:00
6:53 AM,59.0,57.9,96,29.97,2.5,Calm,Calm,-,N/A,,Clear,0,2012-10-03 11:53:00
7:01 AM,59.0,57.2,94,29.98,0.8,Calm,Calm,-,N/A,,Clear,0,2012-10-03 12:01:00
7:19 AM,57.2,57.2,100,29.99,0.5,Calm,Calm,-,N/A,Fog,Fog,0,2012-10-03 12:19:00
7:25 AM,57.2,57.2,100,29.99,1.0,Calm,Calm,-,N/A,,Clear,0,2012-10-03 12:25:00
7:37 AM,57.2,57.2,100,30.00,3.0,Calm,Calm,-,N/A,,Partly Cloudy,0,2012-10-03 12:37:00
7:53 AM,60.1,59.0,96,29.99,3.0,Calm,Calm,-,N/A,,Scattered Clouds,0,2012-10-03 12:53:00
8:53 AM,63.0,60.1,90,30.01,5.0,Calm,Calm,-,N/A,,Partly Cloudy,0,2012-10-03 13:53:00
9:53 AM,66.0,59.0,78,30.03,7.0,Calm,Calm,-,N/A,,Clear,0,2012-10-03 14:53:00
10:53 AM,71.1,57.9,63,30.03,10.0,Calm,Calm,-,N/A,,Overcast,0,2012-10-03 15:53:00
3:53 PM,82.0,54.0,38,29.97,10.0,South,10.4,-,N/A,,Clear,190,2012-10-03 20:53:00
4:53 PM,81.0,52.0,36,29.96,10.0,Variable,5.8,-,N/A,,Partly Cloudy,0,2012-10-03 21:53:00
5:53 PM,79.0,52.0,39,29.97,10.0,South,3.5,-,N/A,,Clear,170,2012-10-03 22:53:00
6:53 PM,73.9,54.0,50,29.98,10.0,SSE,4.6,-,N/A,,Clear,150,2012-10-03 23:53:00
7:53 PM,64.0,57.0,78,30.00,10.0,Calm,Calm,-,N/A,,Clear,0,2012-10-04 00:53:00
8:53 PM,62.1,57.9,86,30.02,10.0,East,3.5,-,N/A,,Clear,90,2012-10-04 01:53:00
9:53 PM,61.0,57.0,87,30.04,8.0,Calm,Calm,-,N/A,,Clear,0,2012-10-04 02:53:00
10:53 PM,59.0,57.0,93,30.06,7.0,Calm,Calm,-,N/A,,Clear,0,2012-10-04 03:53:00
11:53 PM,57.9,55.0,90,30.07,7.0,Calm,Calm,-,N/A,,Clear,0,2012-10-04 04:53:00